Krakow, Poland

6:20 AM CET on January 23, 2017 (GMT +0100)
Krakow

Weather History for 12566 - July, 2013

Change the Weather History Date:

Thursday, July 18, 2013

  Actual Average Record
Temperature  
Mean Temperature 68 °F -  
Max Temperature 80 °F 73 °F - ()
Min Temperature 55 °F 53 °F - ()
Cooling Degree Days 2    
Growing Degree Days 18 (Base 50)    
Moisture  
Dew Point 58 °F    
Average Humidity 70    
Maximum Humidity 100    
Minimum Humidity 32    
Precipitation  
Precipitation 0.00 in 0.11 in - ()
Sea Level Pressure  
Sea Level Pressure 30.17 in    
Wind  
Wind Speed 1 mph ()    
Max Wind Speed 7 mph    
Max Gust Speed -    
Visibility 6.8 miles    
Events Fog    
T = Trace of Precipitation, MM = Missing Value Source: Averaged Metar Reports

Daily Weather History Graph

Daily Weather History Graph

Search for Another Location

Airport or City:

Trip Planner

Search our weather history database for the weather conditions in past years. The results will help you decide how hot, cold, wet, or windy it might be!

Date:

Astronomy

Jul. 18, 2013 Rise Set
Actual Time 4:51 AM CEST 8:41 PM CEST
Civil Twilight 4:09 AM CEST 9:23 PM CEST
Nautical Twilight 3:12 AM CEST 10:20 PM CEST
Astronomical Twilight 1:37 AM CEST 11:51 PM CEST
Moon 4:13 PM CEST (7/18) 12:36 AM CEST (7/18)
Length of Visible Light 17h 13m
Length of Day
15h 50m
Waxing Gibbous, 75% of the Moon is Illuminated
Jul 18
Waxing Gibbous
Jul 22
Full
Jul 29
Last Quarter
Aug 6
New
Aug 14
First Quarter

Hourly Weather History & Observations

Time (CEST) Temp. Heat Index Dew Point Humidity Pressure Visibility Wind Dir Wind Speed Gust Speed Precip Events Conditions
12:00 AM 62.6 °F - 59.0 °F 88% 30.18 in - Calm Calm - N/A   Clear
12:30 AM 60.8 °F - 59.0 °F 94% 30.18 in - Calm Calm - N/A   Clear
1:00 AM 60.8 °F - 59.0 °F 94% 30.18 in - Calm Calm - N/A   Clear
1:30 AM 59.0 °F - 57.2 °F 94% 30.18 in 6.2 mi Calm Calm - N/A   Partly Cloudy
2:00 AM 60 °F - 58 °F 90% 30.19 in 9 mi Calm Calm - -   Scattered Clouds
2:00 AM 59.0 °F - 57.2 °F 94% 30.18 in 6.2 mi Calm Calm - N/A   Partly Cloudy
2:30 AM 59.0 °F - 59.0 °F 100% 30.18 in 6.2 mi Calm Calm - N/A   Partly Cloudy
3:00 AM 59.0 °F - 57.2 °F 94% 30.18 in - Calm Calm - N/A   Clear
3:30 AM 59.0 °F - 57.2 °F 94% 30.18 in - Calm Calm - N/A   Clear
4:00 AM 57.2 °F - 55.4 °F 94% 30.18 in 6.2 mi Calm Calm - N/A Fog Shallow Fog
4:30 AM 57.2 °F - 55.4 °F 94% 30.18 in 6.2 mi Calm Calm - N/A Fog Shallow Fog
5:00 AM 56 °F - 55 °F 95% 30.20 in 6 mi Calm Calm - - Fog Patches of Fog
5:00 AM 55.4 °F - 55.4 °F 100% 30.18 in 6.2 mi Calm Calm - N/A Fog Shallow Fog
5:30 AM 55.4 °F - 55.4 °F 100% 30.18 in 6.2 mi NE 4.6 mph - N/A Fog Shallow Fog
6:00 AM 57.2 °F - 57.2 °F 100% 30.21 in 2.5 mi Calm Calm - N/A   Mist
6:30 AM 59.0 °F - 57.2 °F 94% 30.21 in 5.0 mi Calm Calm - N/A   Partly Cloudy
7:00 AM 60.8 °F - 59.0 °F 94% 30.21 in 5.0 mi Calm Calm - N/A   Partly Cloudy
7:30 AM 62.6 °F - 59.0 °F 88% 30.21 in - Calm Calm - N/A   Clear
8:00 AM 65 °F - 60 °F 79% 30.21 in 6 mi Calm Calm - -   Clear
8:00 AM 66.2 °F - 60.8 °F 83% 30.21 in - Calm Calm - N/A   Clear
8:30 AM 68.0 °F - 60.8 °F 78% 30.21 in - Calm Calm - N/A   Clear
9:00 AM 71.6 °F - 60.8 °F 69% 30.21 in - Variable 1.2 mph - N/A   Clear
9:30 AM 71.6 °F - 59.0 °F 64% 30.21 in - Variable 1.2 mph - N/A   Clear
10:00 AM 75.2 °F - 59.0 °F 57% 30.21 in 6.2 mi Calm Calm - N/A   Partly Cloudy
10:30 AM 75.2 °F - 59.0 °F 57% 30.21 in 6.2 mi Variable 1.2 mph - N/A   Partly Cloudy
11:00 AM 75.2 °F - 59.0 °F 57% 30.21 in 6.2 mi Variable 2.3 mph - N/A   Scattered Clouds
11:30 AM 75.2 °F - 57.2 °F 53% 30.21 in 6.2 mi NW 3.5 mph - N/A   Scattered Clouds
12:00 PM 75.2 °F - 57.2 °F 53% 30.18 in 6.2 mi West 5.8 mph - N/A   Scattered Clouds
12:30 PM 75.2 °F - 57.2 °F 53% 30.18 in 6.2 mi NW 5.8 mph - N/A   Scattered Clouds
1:00 PM 75.2 °F - 57.2 °F 53% 30.18 in 6.2 mi WNW 5.8 mph - N/A   Scattered Clouds
1:30 PM 78.8 °F - 55.4 °F 44% 30.18 in 6.2 mi Variable 2.3 mph - N/A   Scattered Clouds
2:00 PM 78 °F - 57 °F 38% 30.15 in 19 mi NNW 4.5 mph - -   Partly Cloudy
2:00 PM 78.8 °F - 57.2 °F 47% 30.18 in 6.2 mi Variable 2.3 mph - N/A   Scattered Clouds
2:30 PM 78.8 °F - 53.6 °F 42% 30.18 in 6.2 mi North 5.8 mph - N/A   Scattered Clouds
3:00 PM 78.8 °F - 57.2 °F 47% 30.15 in 6.2 mi WNW 3.5 mph - N/A   Scattered Clouds
3:30 PM 80.6 °F 80.3 °F 53.6 °F 39% 30.15 in 6.2 mi Variable 2.3 mph - N/A   Scattered Clouds
4:00 PM 80.6 °F 80.3 °F 53.6 °F 39% 30.15 in 6.2 mi West 4.6 mph - N/A   Scattered Clouds
4:30 PM 78.8 °F - 57.2 °F 47% 30.15 in 6.2 mi NNW 5.8 mph - N/A   Scattered Clouds
5:00 PM 80 °F - 55 °F 32% 30.12 in 25 mi NNE 6.7 mph - -   Partly Cloudy
5:00 PM 80.6 °F 80.5 °F 55.4 °F 42% 30.15 in 6.2 mi Variable 2.3 mph - N/A   Scattered Clouds
5:30 PM 78.8 °F - 57.2 °F 47% 30.15 in 6.2 mi ENE 6.9 mph - N/A   Partly Cloudy
6:00 PM 78.8 °F - 55.4 °F 44% 30.12 in 6.2 mi ENE 4.6 mph - N/A   Partly Cloudy
6:30 PM 78.8 °F - 55.4 °F 44% 30.12 in 6.2 mi North 3.5 mph - N/A   Partly Cloudy
7:00 PM 78.8 °F - 53.6 °F 42% 30.12 in 6.2 mi NNW 3.5 mph - N/A   Partly Cloudy
7:30 PM 77.0 °F - 57.2 °F 50% 30.12 in - Calm Calm - N/A   Clear
8:00 PM 76 °F - 61 °F 50% 30.12 in 25 mi Calm Calm - -   Scattered Clouds
8:00 PM 77.0 °F - 59.0 °F 54% 30.12 in - Variable 2.3 mph - N/A   Clear
8:30 PM 73.4 °F - 60.8 °F 65% 30.12 in - Calm Calm - N/A   Clear
9:00 PM 69.8 °F - 60.8 °F 73% 30.12 in - Calm Calm - N/A   Clear
9:30 PM 68.0 °F - 59.0 °F 73% 30.15 in - Calm Calm - N/A   Clear
10:00 PM 66.2 °F - 59.0 °F 78% 30.15 in - Calm Calm - N/A   Clear
10:30 PM 64.4 °F - 59.0 °F 83% 30.15 in - Calm Calm - N/A   Clear
11:00 PM 64 °F - 59 °F 79% 30.14 in 19 mi NNE 4.5 mph - -  
11:00 PM 64.4 °F - 59.0 °F 83% 30.15 in - NE 2.3 mph - N/A   Clear
11:30 PM 62.6 °F - 59.0 °F 88% 30.15 in - Calm Calm - N/A   Clear